"Sample Date","Sample Time","Sample Value","Units","Flow Rate","Sample Interval","Number Channels","Micron Size 0","Counts/Channel 0","Micron Size 1","Counts/Channel 1","Micron Size 2","Counts/Channel 2","Micron Size 3","Counts/Channel 3","Micron Size 4","Counts/Channel 4","Micron Size 5","Counts/Channel 5","Micron Size 6","Counts/Channel 6","Micron Size 7","Counts/Channel 7","Micron Size 8","Counts/Channel 8","Micron Size 9","Counts/Channel 9","Micron Size 10","Counts/Channel 10","Micron Size 11","Counts/Channel 11","Micron Size 12","Counts/Channel 12","Micron Size 13","Counts/Channel 13","Micron Size 14","Counts/Channel 14","Micron Size 15","Counts/Channel 15","Micron Size 16","Counts/Channel 16","Micron Size 17","Counts/Channel 17","Micron Size 18","Counts/Channel 18","Micron Size 19","Counts/Channel 19","Micron Size 20","Counts/Channel 20","Micron Size 21","Counts/Channel 21","Micron Size 22","Counts/Channel 22","Micron Size 23","Counts/Channel 23","Micron Size 24","Counts/Channel 24","Micron Size 25","Counts/Channel 25","Micron Size 26","Counts/Channel 26","Micron Size 27","Counts/Channel 27","Micron Size 28","Counts/Channel 28","Micron Size 29","Counts/Channel 29","Micron Size 30","Counts/Channel 30","Micron Size 31","Counts/Channel 31"
"04/05/08","10:00:00",3557.000,"cc",28372.627,6.00,6,0.100,3550.000,0.200,7.000,0.300,0,0.500,0,1.000,0,5.000,0
"04/05/08","10:00:06",2597.000,"cc",28353.033,6.00,6,0.100,2591.000,0.200,6.000,0.300,0,0.500,0,1.000,0,5.000,0
"04/05/08","10:00:12",2664.000,"cc",28282.566,6.00,6,0.100,2656.000,0.200,8.000,0.300,0,0.500,0,1.000,0,5.000,0
"04/05/08","10:00:18",3187.000,"cc",28331.377,6.00,6,0.100,3174.000,0.200,13.000,0.300,0,0.500,0,1.000,0,5.000,0
"04/05/08","10:00:24",3103.000,"cc",28311.195,6.00,6,0.100,3065.000,0.200,37.000,0.300,1.000,0.500,0,1.000,0,5.000,0
"04/05/08","10:00:30",3898.000,"cc",28288.395,6.00,6,0.100,3848.000,0.200,50.000,0.300,0,0.500,0,1.000,0,5.000,0
"04/05/08","10:00:36",4199.000,"cc",28324.190,6.00,6,0.100,4140.000,0.200,59.000,0.300,0,0.500,0,1.000,0,5.000,0
"04/05/08","10:00:42",4362.000,"cc",28315.707,6.00,6,0.100,4306.000,0.200,55.000,0.300,1.000,0.500,0,1.000,0,5.000,0
"04/05/08","10:00:48",4306.000,"cc",28239.580,6.00,6,0.100,4269.000,0.200,37.000,0.300,0,0.500,0,1.000,0,5.000,0
"04/05/08","10:00:54",3848.000,"cc",28329.549,6.00,6,0.100,3802.000,0.200,46.000,0.300,0,0.500,0,1.000,0,5.000,0
"04/05/08","10:01:00",4165.000,"cc",28325.137,6.00,6,0.100,4116.000,0.200,49.000,0.300,0,0.500,0,1.000,0,5.000,0
"04/05/08","10:01:06",3992.000,"cc",28266.674,6.00,6,0.100,3950.000,0.200,42.000,0.300,0,0.500,0,1.000,0,5.000,0
"04/05/08","10:01:12",4057.000,"cc",28329.295,6.00,6,0.100,4013.000,0.200,44.000,0.300,0,0.500,0,1.000,0,5.000,0
"04/05/08","10:01:18",3591.000,"cc",28371.240,6.00,6,0.100,3564.000,0.200,27.000,0.300,0,0.500,0,1.000,0,5.000,0
"04/05/08","10:01:24",3733.000,"cc",28331.910,6.00,6,0.100,3701.000,0.200,30.000,0.300,1.000,0.500,0,1.000,1.000,5.000,0
"04/05/08","10:01:30",3636.000,"cc",28279.971,6.00,6,0.100,3593.000,0.200,43.000,0.300,0,0.500,0,1.000,0,5.000,0
"04/05/08","10:01:36",3224.000,"cc",28302.438,6.00,6,0.100,3208.000,0.200,16.000,0.300,0,0.500,0,1.000,0,5.000,0
"04/05/08","10:01:42",3572.000,"cc",28305.600,6.00,6,0.100,3548.000,0.200,22.000,0.300,2.000,0.500,0,1.000,0,5.000,0
"04/05/08","10:01:48",4157.000,"cc",28312.838,6.00,6,0.100,4119.000,0.200,37.000,0.300,1.000,0.500,0,1.000,0,5.000,0
"04/05/08","10:01:54",4279.000,"cc",28302.910,6.00,6,0.100,4253.000,0.200,25.000,0.300,1.000,0.500,0,1.000,0,5.000,0
"04/05/08","10:02:00",4665.000,"cc",28382.725,6.00,6,0.100,4641.000,0.200,22.000,0.300,1.000,0.500,0,1.000,1.000,5.000,0
"04/05/08","10:02:06",3932.000,"cc",28317.496,6.00,6,0.100,3906.000,0.200,25.000,0.300,0,0.500,1.000,1.000,0,5.000,0
"04/05/08","10:02:12",4692.000,"cc",28325.065,6.00,6,0.100,4656.000,0.200,36.000,0.300,0,0.500,0,1.000,0,5.000,0
"04/05/08","10:02:18",4526.000,"cc",28320.912,6.00,6,0.100,4492.000,0.200,33.000,0.300,1.000,0.500,0,1.000,0,5.000,0
"04/05/08","10:02:24",4328.000,"cc",28299.949,6.00,6,0.100,4299.000,0.200,29.000,0.300,0,0.500,0,1.000,0,5.000,0
"04/05/08","10:02:30",4972.000,"cc",28363.285,6.00,6,0.100,4922.000,0.200,49.000,0.300,1.000,0.500,0,1.000,0,5.000,0
"04/05/08","10:02:36",4608.000,"cc",28257.129,6.00,6,0.100,4561.000,0.200,44.000,0.300,2.000,0.500,0,1.000,1.000,5.000,0
"04/05/08","10:02:42",3849.000,"cc",28356.053,6.00,6,0.100,3822.000,0.200,27.000,0.300,0,0.500,0,1.000,0,5.000,0
"04/05/08","10:02:48",3739.000,"cc",28303.647,6.00,6,0.100,3710.000,0.200,28.000,0.300,1.000,0.500,0,1.000,0,5.000,0
"04/05/08","10:02:54",3742.000,"cc",28327.086,6.00,6,0.100,3716.000,0.200,25.000,0.300,0,0.500,0,1.000,1.000,5.000,0
"04/05/08","10:03:00",3008.000,"cc",28325.660,6.00,6,0.100,2986.000,0.200,22.000,0.300,0,0.500,0,1.000,0,5.000,0
"04/05/08","10:03:06",2952.000,"cc",28347.828,6.00,6,0.100,2923.000,0.200,29.000,0.300,0,0.500,0,1.000,0,5.000,0
"04/05/08","10:03:12",3639.000,"cc",28260.994,6.00,6,0.100,3622.000,0.200,17.000,0.300,0,0.500,0,1.000,0,5.000,0
"04/05/08","10:03:18",3842.000,"cc",28283.666,6.00,6,0.100,3832.000,0.200,10.000,0.300,0,0.500,0,1.000,0,5.000,0
"04/05/08","10:03:24",3956.000,"cc",28328.979,6.00,6,0.100,3945.000,0.200,10.000,0.300,0,0.500,1.000,1.000,0,5.000,0
"04/05/08","10:03:30",3199.000,"cc",28369.066,6.00,6,0.100,3186.000,0.200,13.000,0.300,0,0.500,0,1.000,0,5.000,0
"04/05/08","10:03:36",2947.000,"cc",28327.754,6.00,6,0.100,2926.000,0.200,19.000,0.300,2.000,0.500,0,1.000,0,5.000,0
"04/05/08","10:03:42",2967.000,"cc",28287.918,6.00,6,0.100,2952.000,0.200,15.000,0.300,0,0.500,0,1.000,0,5.000,0
"04/05/08","10:03:48",3084.000,"cc",28283.686,6.00,6,0.100,3076.000,0.200,7.000,0.300,0,0.500,1.000,1.000,0,5.000,0
"04/05/08","10:03:54",3310.000,"cc",28300.815,6.00,6,0.100,3296.000,0.200,14.000,0.300,0,0.500,0,1.000,0,5.000,0
"04/05/08","10:04:00",3223.000,"cc",28370.215,6.00,6,0.100,3209.000,0.200,14.000,0.300,0,0.500,0,1.000,0,5.000,0
"04/05/08","10:04:06",3455.000,"cc",28334.781,6.00,6,0.100,3429.000,0.200,26.000,0.300,0,0.500,0,1.000,0,5.000,0
"04/05/08","10:04:12",3235.000,"cc",28371.406,6.00,6,0.100,3215.000,0.200,19.000,0.300,1.000,0.500,0,1.000,0,5.000,0
"04/05/08","10:04:18",3391.000,"cc",28292.535,6.00,6,0.100,3359.000,0.200,32.000,0.300,0,0.500,0,1.000,0,5.000,0
"04/05/08","10:04:24",3327.000,"cc",28332.234,6.00,6,0.100,3294.000,0.200,32.000,0.300,0,0.500,1.000,1.000,0,5.000,0
"04/05/08","10:04:30",3814.000,"cc",28295.420,6.00,6,0.100,3776.000,0.200,38.000,0.300,0,0.500,0,1.000,0,5.000,0
"04/05/08","10:04:36",3712.000,"cc",28319.852,6.00,6,0.100,3670.000,0.200,42.000,0.300,0,0.500,0,1.000,0,5.000,0
"04/05/08","10:04:42",4011.000,"cc",28303.982,6.00,6,0.100,3976.000,0.200,35.000,0.300,0,0.500,0,1.000,0,5.000,0
"04/05/08","10:04:48",4125.000,"cc",28305.238,6.00,6,0.100,4078.000,0.200,47.000,0.300,0,0.500,0,1.000,0,5.000,0
"04/05/08","10:04:54",4305.000,"cc",28333.611,6.00,6,0.100,4276.000,0.200,29.000,0.300,0,0.500,0,1.000,0,5.000,0
"04/05/08","10:05:00",4580.000,"cc",28309.150,6.00,6,0.100,4554.000,0.200,26.000,0.300,0,0.500,0,1.000,0,5.000,0
"04/05/08","10:05:06",4235.000,"cc",28311.065,6.00,6,0.100,4189.000,0.200,46.000,0.300,0,0.500,0,1.000,0,5.000,0
"04/05/08","10:05:12",4525.000,"cc",28313.207,6.00,6,0.100,4472.000,0.200,53.000,0.300,0,0.500,0,1.000,0,5.000,0
"04/05/08","10:05:18",4462.000,"cc",28291.822,6.00,6,0.100,4417.000,0.200,45.000,0.300,0,0.500,0,1.000,0,5.000,0
"04/05/08","10:05:24",4732.000,"cc",28345.775,6.00,6,0.100,4689.000,0.200,43.000,0.300,0,0.500,0,1.000,0,5.000,0
"04/05/08","10:05:30",4316.000,"cc",28382.322,6.00,6,0.100,4256.000,0.200,60.000,0.300,0,0.500,0,1.000,0,5.000,0
"04/05/08","10:05:36",4848.000,"cc",28339.947,6.00,6,0.100,4813.000,0.200,34.000,0.300,0,0.500,1.000,1.000,0,5.000,0
"04/05/08","10:05:42",4673.000,"cc",28288.590,6.00,6,0.100,4641.000,0.200,31.000,0.300,0,0.500,1.000,1.000,0,5.000,0
"04/05/08","10:05:48",4577.000,"cc",28308.109,6.00,6,0.100,4549.000,0.200,28.000,0.300,0,0.500,0,1.000,0,5.000,0
"04/05/08","10:05:54",4100.000,"cc",28318.795,6.00,6,0.100,4049.000,0.200,50.000,0.300,0,0.500,1.000,1.000,0,5.000,0
"04/05/08","10:06:00",3591.000,"cc",28260.180,6.00,6,0.100,3543.000,0.200,48.000,0.300,0,0.500,0,1.000,0,5.000,0
"04/05/08","10:06:06",3349.000,"cc",28306.795,6.00,6,0.100,3310.000,0.200,39.000,0.300,0,0.500,0,1.000,0,5.000,0
"04/05/08","10:06:12",3266.000,"cc",28328.941,6.00,6,0.100,3225.000,0.200,41.000,0.300,0,0.500,0,1.000,0,5.000,0
"04/05/08","10:06:18",3052.000,"cc",28312.508,6.00,6,0.100,3006.000,0.200,46.000,0.300,0,0.500,0,1.000,0,5.000,0
"04/05/08","10:06:24",2743.000,"cc",28356.234,6.00,6,0.100,2707.000,0.200,36.000,0.300,0,0.500,0,1.000,0,5.000,0
"04/05/08","10:06:30",2633.000,"cc",28391.500,6.00,6,0.100,2599.000,0.200,32.000,0.300,2.000,0.500,0,1.000,0,5.000,0
"04/05/08","10:06:36",2987.000,"cc",28316.854,6.00,6,0.100,2945.000,0.200,41.000,0.300,1.000,0.500,0,1.000,0,5.000,0
"04/05/08","10:06:42",3242.000,"cc",28288.574,6.00,6,0.100,3194.000,0.200,47.000,0.300,1.000,0.500,0,1.000,0,5.000,0
"04/05/08","10:06:48",3434.000,"cc",28314.268,6.00,6,0.100,3408.000,0.200,26.000,0.300,0,0.500,0,1.000,0,5.000,0
"04/05/08","10:06:54",3574.000,"cc",28335.613,6.00,6,0.100,3536.000,0.200,37.000,0.300,1.000,0.500,0,1.000,0,5.000,0
"04/05/08","10:07:00",3622.000,"cc",28376.551,6.00,6,0.100,3592.000,0.200,29.000,0.300,1.000,0.500,0,1.000,0,5.000,0
"04/05/08","10:07:06",3614.000,"cc",28305.740,6.00,6,0.100,3571.000,0.200,40.000,0.300,2.000,0.500,1.000,1.000,0,5.000,0
"04/05/08","10:07:12",3800.000,"cc",28308.035,6.00,6,0.100,3759.000,0.200,41.000,0.300,0,0.500,0,1.000,0,5.000,0
"04/05/08","10:07:18",3921.000,"cc",28312.008,6.00,6,0.100,3879.000,0.200,39.000,0.300,3.000,0.500,0,1.000,0,5.000,0
"04/05/08","10:07:24",3790.000,"cc",28321.275,6.00,6,0.100,3764.000,0.200,26.000,0.300,0,0.500,0,1.000,0,5.000,0
"04/05/08","10:07:30",3341.000,"cc",28187.086,6.00,6,0.100,3311.000,0.200,29.000,0.300,1.000,0.500,0,1.000,0,5.000,0
"04/05/08","10:07:36",2808.000,"cc",28391.752,6.00,6,0.100,2776.000,0.200,30.000,0.300,1.000,0.500,1.000,1.000,0,5.000,0
"04/05/08","10:07:42",2695.000,"cc",28338.783,6.00,6,0.100,2663.000,0.200,29.000,0.300,3.000,0.500,0,1.000,0,5.000,0
"04/05/08","10:07:48",2435.000,"cc",28322.188,6.00,6,0.100,2404.000,0.200,26.000,0.300,4.000,0.500,1.000,1.000,0,5.000,0
"04/05/08","10:07:54",2234.000,"cc",28319.088,6.00,6,0.100,2213.000,0.200,21.000,0.300,0,0.500,0,1.000,0,5.000,0
"04/05/08","10:08:00",2251.000,"cc",28298.904,6.00,6,0.100,2232.000,0.200,19.000,0.300,0,0.500,0,1.000,0,5.000,0
"04/05/08","10:08:06",2340.000,"cc",28290.908,6.00,6,0.100,2311.000,0.200,28.000,0.300,1.000,0.500,0,1.000,0,5.000,0
"04/05/08","10:08:12",2646.000,"cc",28325.887,6.00,6,0.100,2619.000,0.200,26.000,0.300,1.000,0.500,0,1.000,0,5.000,0
"04/05/08","10:08:18",2946.000,"cc",28329.139,6.00,6,0.100,2911.000,0.200,33.000,0.300,1.000,0.500,1.000,1.000,0,5.000,0
"04/05/08","10:08:24",3186.000,"cc",28352.908,6.00,6,0.100,3154.000,0.200,32.000,0.300,0,0.500,0,1.000,0,5.000,0
"04/05/08","10:08:30",3691.000,"cc",28338.471,6.00,6,0.100,3652.000,0.200,38.000,0.300,0,0.500,1.000,1.000,0,5.000,0
"04/05/08","10:08:36",4040.000,"cc",28333.201,6.00,6,0.100,4022.000,0.200,17.000,0.300,1.000,0.500,0,1.000,0,5.000,0
"04/05/08","10:08:42",4462.000,"cc",28265.082,6.00,6,0.100,4444.000,0.200,18.000,0.300,0,0.500,0,1.000,0,5.000,0
"04/05/08","10:08:48",4813.000,"cc",28332.832,6.00,6,0.100,4787.000,0.200,25.000,0.300,1.000,0.500,0,1.000,0,5.000,0
"04/05/08","10:08:54",5029.000,"cc",28338.535,6.00,6,0.100,4990.000,0.200,38.000,0.300,1.000,0.500,0,1.000,0,5.000,0
"04/05/08","10:09:00",4443.000,"cc",28243.969,6.00,6,0.100,4400.000,0.200,43.000,0.300,0,0.500,0,1.000,0,5.000,0
"04/05/08","10:09:06",4955.000,"cc",28304.852,6.00,6,0.100,4902.000,0.200,52.000,0.300,1.000,0.500,0,1.000,0,5.000,0
"04/05/08","10:09:12",3941.000,"cc",28340.307,6.00,6,0.100,3898.000,0.200,41.000,0.300,2.000,0.500,0,1.000,0,5.000,0
"04/05/08","10:09:18",3014.000,"cc",28344.643,6.00,6,0.100,2981.000,0.200,33.000,0.300,0,0.500,0,1.000,0,5.000,0
"04/05/08","10:09:24",2997.000,"cc",28304.379,6.00,6,0.100,2960.000,0.200,36.000,0.300,0,0.500,1.000,1.000,0,5.000,0
"04/05/08","10:09:30",2880.000,"cc",28295.389,6.00,6,0.100,2836.000,0.200,44.000,0.300,0,0.500,0,1.000,0,5.000,0
"04/05/08","10:09:36",2934.000,"cc",28322.311,6.00,6,0.100,2885.000,0.200,45.000,0.300,4.000,0.500,0,1.000,0,5.000,0
"04/05/08","10:09:42",3160.000,"cc",28345.098,6.00,6,0.100,3101.000,0.200,57.000,0.300,2.000,0.500,0,1.000,0,5.000,0
"04/05/08","10:09:48",3205.000,"cc",28319.057,6.00,6,0.100,3143.000,0.200,62.000,0.300,0,0.500,0,1.000,0,5.000,0
"04/05/08","10:09:54",3438.000,"cc",28274.197,6.00,6,0.100,3394.000,0.200,41.000,0.300,3.000,0.500,0,1.000,0,5.000,0
"04/05/08","10:10:00",3805.000,"cc",28309.990,6.00,6,0.100,3752.000,0.200,53.000,0.300,0,0.500,0,1.000,0,5.000,0
"04/05/08","10:10:06",4210.000,"cc",28345.453,6.00,6,0.100,4151.000,0.200,59.000,0.300,0,0.500,0,1.000,0,5.000,0
"04/05/08","10:10:12",4459.000,"cc",28327.328,6.00,6,0.100,4400.000,0.200,59.000,0.300,0,0.500,0,1.000,0,5.000,0
"04/05/08","10:10:18",4348.000,"cc",28315.426,6.00,6,0.100,4325.000,0.200,23.000,0.300,0,0.500,0,1.000,0,5.000,0
"04/05/08","10:10:24",5035.000,"cc",28306.781,6.00,6,0.100,5014.000,0.200,21.000,0.300,0,0.500,0,1.000,0,5.000,0
"04/05/08","10:10:30",5328.000,"cc",28245.865,6.00,6,0.100,5290.000,0.200,38.000,0.300,0,0.500,0,1.000,0,5.000,0
"04/05/08","10:10:36",5548.000,"cc",28304.801,6.00,6,0.100,5506.000,0.200,41.000,0.300,0,0.500,1.000,1.000,0,5.000,0
"04/05/08","10:10:42",4646.000,"cc",28340.336,6.00,6,0.100,4605.000,0.200,40.000,0.300,1.000,0.500,0,1.000,0,5.000,0
"04/05/08","10:10:48",3856.000,"cc",28344.273,6.00,6,0.100,3827.000,0.200,28.000,0.300,1.000,0.500,0,1.000,0,5.000,0
"04/05/08","10:10:54",2911.000,"cc",28368.582,6.00,6,0.100,2883.000,0.200,24.000,0.300,4.000,0.500,0,1.000,0,5.000,0
"04/05/08","10:11:00",2555.000,"cc",28253.697,6.00,6,0.100,2501.000,0.200,53.000,0.300,0,0.500,1.000,1.000,0,5.000,0
"04/05/08","10:11:06",2224.000,"cc",28305.299,6.00,6,0.100,2193.000,0.200,31.000,0.300,0,0.500,0,1.000,0,5.000,0
"04/05/08","10:11:12",2210.000,"cc",28325.057,6.00,6,0.100,2179.000,0.200,30.000,0.300,1.000,0.500,0,1.000,0,5.000,0
"04/05/08","10:11:18",2426.000,"cc",28315.834,6.00,6,0.100,2392.000,0.200,31.000,0.300,3.000,0.500,0,1.000,0,5.000,0
"04/05/08","10:11:24",2498.000,"cc",28343.129,6.00,6,0.100,2464.000,0.200,32.000,0.300,2.000,0.500,0,1.000,0,5.000,0
"04/05/08","10:11:30",2856.000,"cc",28266.395,6.00,6,0.100,2825.000,0.200,31.000,0.300,0,0.500,0,1.000,0,5.000,0
"04/05/08","10:11:36",2766.000,"cc",28330.127,6.00,6,0.100,2744.000,0.200,21.000,0.300,1.000,0.500,0,1.000,0,5.000,0
"04/05/08","10:11:42",3513.000,"cc",28340.723,6.00,6,0.100,3501.000,0.200,12.000,0.300,0,0.500,0,1.000,0,5.000,0
"04/05/08","10:11:48",3463.000,"cc",28325.475,6.00,6,0.100,3453.000,0.200,9.000,0.300,1.000,0.500,0,1.000,0,5.000,0
"04/05/08","10:11:54",4090.000,"cc",28321.922,6.00,6,0.100,4073.000,0.200,17.000,0.300,0,0.500,0,1.000,0,5.000,0
"04/05/08","10:12:00",4369.000,"cc",28250.895,6.00,6,0.100,4336.000,0.200,30.000,0.300,3.000,0.500,0,1.000,0,5.000,0
"04/05/08","10:12:06",3952.000,"cc",28315.348,6.00,6,0.100,3900.000,0.200,51.000,0.300,0,0.500,1.000,1.000,0,5.000,0
"04/05/08","10:12:12",3766.000,"cc",28334.842,6.00,6,0.100,3680.000,0.200,86.000,0.300,0,0.500,0,1.000,0,5.000,0
"04/05/08","10:12:18",3490.000,"cc",28316.186,6.00,6,0.100,3416.000,0.200,72.000,0.300,2.000,0.500,0,1.000,0,5.000,0
"04/05/08","10:12:24",2850.000,"cc",28341.822,6.00,6,0.100,2789.000,0.200,61.000,0.300,0,0.500,0,1.000,0,5.000,0
"04/05/08","10:12:30",3124.000,"cc",28303.328,6.00,6,0.100,3044.000,0.200,79.000,0.300,1.000,0.500,0,1.000,0,5.000,0
"04/05/08","10:12:36",3265.000,"cc",28306.342,6.00,6,0.100,3184.000,0.200,79.000,0.300,1.000,0.500,0,1.000,1.000,5.000,0
"04/05/08","10:12:42",3413.000,"cc",28329.225,6.00,6,0.100,3323.000,0.200,89.000,0.300,1.000,0.500,0,1.000,0,5.000,0
"04/05/08","10:12:48",3919.000,"cc",28301.254,6.00,6,0.100,3824.000,0.200,92.000,0.300,2.000,0.500,1.000,1.000,0,5.000,0
"04/05/08","10:12:54",4146.000,"cc",28312.693,6.00,6,0.100,4054.000,0.200,92.000,0.300,0,0.500,0,1.000,0,5.000,0
"04/05/08","10:13:00",4396.000,"cc",28328.959,6.00,6,0.100,4242.000,0.200,126.000,0.300,14.000,0.500,10.000,1.000,4.000,5.000,0
"04/05/08","10:13:06",4383.000,"cc",28327.363,6.00,6,0.100,4258.000,0.200,122.000,0.300,1.000,0.500,2.000,1.000,0,5.000,0
"04/05/08","10:13:12",4568.000,"cc",28257.178,6.00,6,0.100,4466.000,0.200,101.000,0.300,1.000,0.500,0,1.000,0,5.000,0
"04/05/08","10:13:18",4502.000,"cc",28307.680,6.00,6,0.100,4424.000,0.200,76.000,0.300,0,0.500,1.000,1.000,1.000,5.000,0
"04/05/08","10:13:24",4248.000,"cc",28360.184,6.00,6,0.100,4173.000,0.200,75.000,0.300,0,0.500,0,1.000,0,5.000,0
"04/05/08","10:13:30",4613.000,"cc",28287.441,6.00,6,0.100,4572.000,0.200,40.000,0.300,1.000,0.500,0,1.000,0,5.000,0
"04/05/08","10:13:36",5158.000,"cc",28341.918,6.00,6,0.100,5087.000,0.200,70.000,0.300,1.000,0.500,0,1.000,0,5.000,0
"04/05/08","10:13:42",5116.000,"cc",28412.402,6.00,6,0.100,5019.000,0.200,95.000,0.300,1.000,0.500,1.000,1.000,0,5.000,0
"04/05/08","10:13:48",4548.000,"cc",28303.895,6.00,6,0.100,4435.000,0.200,112.000,0.300,0,0.500,1.000,1.000,0,5.000,0
"04/05/08","10:13:54",3701.000,"cc",28236.715,6.00,6,0.100,3591.000,0.200,107.000,0.300,3.000,0.500,0,1.000,0,5.000,0
"04/05/08","10:14:00",3165.000,"cc",28310.371,6.00,6,0.100,3077.000,0.200,86.000,0.300,2.000,0.500,0,1.000,0,5.000,0
"04/05/08","10:14:06",3146.000,"cc",28345.084,6.00,6,0.100,3060.000,0.200,81.000,0.300,5.000,0.500,0,1.000,0,5.000,0
"04/05/08","10:14:12",3317.000,"cc",28306.465,6.00,6,0.100,3230.000,0.200,81.000,0.300,6.000,0.500,0,1.000,0,5.000,0
"04/05/08","10:14:18",3465.000,"cc",28285.924,6.00,6,0.100,3349.000,0.200,111.000,0.300,5.000,0.500,0,1.000,0,5.000,0
"04/05/08","10:14:24",3574.000,"cc",28336.285,6.00,6,0.100,3472.000,0.200,101.000,0.300,1.000,0.500,0,1.000,0,5.000,0
"04/05/08","10:14:30",3764.000,"cc",28319.164,6.00,6,0.100,3672.000,0.200,91.000,0.300,1.000,0.500,0,1.000,0,5.000,0
"04/05/08","10:14:36",4137.000,"cc",28304.418,6.00,6,0.100,4069.000,0.200,62.000,0.300,3.000,0.500,2.000,1.000,1.000,5.000,0
"04/05/08","10:14:42",4459.000,"cc",28336.344,6.00,6,0.100,4410.000,0.200,49.000,0.300,0,0.500,0,1.000,0,5.000,0
"04/05/08","10:14:48",4883.000,"cc",28261.469,6.00,6,0.100,4809.000,0.200,73.000,0.300,1.000,0.500,0,1.000,0,5.000,0
"04/05/08","10:14:54",4556.000,"cc",28313.231,6.00,6,0.100,4494.000,0.200,61.000,0.300,1.000,0.500,0,1.000,0,5.000,0
"04/05/08","10:15:00",4271.000,"cc",28396.127,6.00,6,0.100,4246.000,0.200,24.000,0.300,1.000,0.500,0,1.000,0,5.000,0
"04/05/08","10:15:06",3723.000,"cc",28353.707,6.00,6,0.100,3703.000,0.200,20.000,0.300,0,0.500,0,1.000,0,5.000,0
"04/05/08","10:15:12",2167.000,"cc",28302.729,6.00,6,0.100,2141.000,0.200,25.000,0.300,0,0.500,1.000,1.000,0,5.000,0
"04/05/08","10:15:18",3713.000,"cc",28319.707,6.00,6,0.100,3678.000,0.200,34.000,0.300,1.000,0.500,0,1.000,0,5.000,0
"04/05/08","10:15:24",4292.000,"cc",28317.012,6.00,6,0.100,4178.000,0.200,114.000,0.300,0,0.500,0,1.000,0,5.000,0
"04/05/08","10:15:30",4050.000,"cc",28327.982,6.00,6,0.100,3941.000,0.200,105.000,0.300,2.000,0.500,2.000,1.000,0,5.000,0
"04/05/08","10:15:36",3658.000,"cc",28328.279,6.00,6,0.100,3568.000,0.200,88.000,0.300,2.000,0.500,0,1.000,0,5.000,0
"04/05/08","10:15:42",3471.000,"cc",28305.680,6.00,6,0.100,3399.000,0.200,70.000,0.300,2.000,0.500,0,1.000,0,5.000,0
"04/05/08","10:15:48",3647.000,"cc",28308.691,6.00,6,0.100,3576.000,0.200,70.000,0.300,1.000,0.500,0,1.000,0,5.000,0
"04/05/08","10:15:54",3681.000,"cc",28314.623,6.00,6,0.100,3596.000,0.200,81.000,0.300,3.000,0.500,0,1.000,1.000,5.000,0
"04/05/08","10:16:00",3909.000,"cc",28322.381,6.00,6,0.100,3816.000,0.200,89.000,0.300,4.000,0.500,0,1.000,0,5.000,0
"04/05/08","10:16:06",3349.000,"cc",28303.197,6.00,6,0.100,3293.000,0.200,54.000,0.300,1.000,0.500,1.000,1.000,0,5.000,0
"04/05/08","10:16:12",3477.000,"cc",28283.824,6.00,6,0.100,3421.000,0.200,54.000,0.300,2.000,0.500,0,1.000,0,5.000,0
"04/05/08","10:16:18",3258.000,"cc",28338.270,6.00,6,0.100,3207.000,0.200,50.000,0.300,1.000,0.500,0,1.000,0,5.000,0
"04/05/08","10:16:24",3564.000,"cc",28313.639,6.00,6,0.100,3517.000,0.200,45.000,0.300,1.000,0.500,0,1.000,1.000,5.000,0
"04/05/08","10:16:30",3111.000,"cc",28237.242,6.00,6,0.100,3061.000,0.200,49.000,0.300,1.000,0.500,0,1.000,0,5.000,0
"04/05/08","10:16:36",3238.000,"cc",28334.598,6.00,6,0.100,3187.000,0.200,50.000,0.300,0,0.500,0,1.000,1.000,5.000,0
"04/05/08","10:16:42",3466.000,"cc",28330.840,6.00,6,0.100,3413.000,0.200,48.000,0.300,4.000,0.500,1.000,1.000,0,5.000,0
"04/05/08","10:16:48",3360.000,"cc",28362.299,6.00,6,0.100,3321.000,0.200,37.000,0.300,2.000,0.500,0,1.000,0,5.000,0
"04/05/08","10:16:54",3376.000,"cc",28381.973,6.00,6,0.100,3338.000,0.200,37.000,0.300,0,0.500,1.000,1.000,0,5.000,0
"04/05/08","10:17:00",3132.000,"cc",28277.555,6.00,6,0.100,3090.000,0.200,40.000,0.300,1.000,0.500,1.000,1.000,0,5.000,0
"04/05/08","10:17:06",2529.000,"cc",28290.301,6.00,6,0.100,2489.000,0.200,37.000,0.300,3.000,0.500,0,1.000,0,5.000,0
"04/05/08","10:17:12",2724.000,"cc",28335.797,6.00,6,0.100,2688.000,0.200,34.000,0.300,2.000,0.500,0,1.000,0,5.000,0
"04/05/08","10:17:18",2730.000,"cc",28297.115,6.00,6,0.100,2701.000,0.200,29.000,0.300,0,0.500,0,1.000,0,5.000,0
"04/05/08","10:17:24",2670.000,"cc",28273.242,6.00,6,0.100,2652.000,0.200,15.000,0.300,3.000,0.500,0,1.000,0,5.000,0
"04/05/08","10:17:30",2783.000,"cc",28318.414,6.00,6,0.100,2770.000,0.200,12.000,0.300,1.000,0.500,0,1.000,0,5.000,0
"04/05/08","10:17:36",2659.000,"cc",28334.236,6.00,6,0.100,2648.000,0.200,11.000,0.300,0,0.500,0,1.000,0,5.000,0
"04/05/08","10:17:42",2526.000,"cc",28327.410,6.00,6,0.100,2513.000,0.200,13.000,0.300,0,0.500,0,1.000,0,5.000,0
"04/05/08","10:17:48",2677.000,"cc",28299.496,6.00,6,0.100,2662.000,0.200,14.000,0.300,0,0.500,1.000,1.000,0,5.000,0
"04/05/08","10:17:54",2598.000,"cc",28313.100,6.00,6,0.100,2586.000,0.200,12.000,0.300,0,0.500,0,1.000,0,5.000,0
"04/05/08","10:18:00",2527.000,"cc",28314.236,6.00,6,0.100,2516.000,0.200,10.000,0.300,0,0.500,0,1.000,1.000,5.000,0
"04/05/08","10:18:06",2654.000,"cc",28350.219,6.00,6,0.100,2634.000,0.200,20.000,0.300,0,0.500,0,1.000,0,5.000,0
"04/05/08","10:18:12",2813.000,"cc",28297.477,6.00,6,0.100,2790.000,0.200,23.000,0.300,0,0.500,0,1.000,0,5.000,0
"04/05/08","10:18:18",3157.000,"cc",28311.215,6.00,6,0.100,3133.000,0.200,24.000,0.300,0,0.500,0,1.000,0,5.000,0
"04/05/08","10:18:24",3516.000,"cc",28300.242,6.00,6,0.100,3486.000,0.200,30.000,0.300,0,0.500,0,1.000,0,5.000,0
"04/05/08","10:18:30",3317.000,"cc",28352.334,6.00,6,0.100,3275.000,0.200,42.000,0.300,0,0.500,0,1.000,0,5.000,0
"04/05/08","10:18:36",2920.000,"cc",28294.930,6.00,6,0.100,2865.000,0.200,55.000,0.300,0,0.500,0,1.000,0,5.000,0
"04/05/08","10:18:42",2951.000,"cc",28304.490,6.00,6,0.100,2899.000,0.200,52.000,0.300,0,0.500,0,1.000,0,5.000,0
"04/05/08","10:18:48",2961.000,"cc",28302.914,6.00,6,0.100,2919.000,0.200,40.000,0.300,1.000,0.500,0,1.000,1.000,5.000,0
"04/05/08","10:18:54",3020.000,"cc",28318.979,6.00,6,0.100,2959.000,0.200,61.000,0.300,0,0.500,0,1.000,0,5.000,0
"04/05/08","10:19:00",3228.000,"cc",28284.695,6.00,6,0.100,3163.000,0.200,59.000,0.300,6.000,0.500,0,1.000,0,5.000,0
"04/05/08","10:19:06",3400.000,"cc",28282.926,6.00,6,0.100,3344.000,0.200,55.000,0.300,1.000,0.500,0,1.000,0,5.000,0
"04/05/08","10:19:12",2842.000,"cc",28350.619,6.00,6,0.100,2800.000,0.200,42.000,0.300,0,0.500,0,1.000,0,5.000,0
"04/05/08","10:19:18",3185.000,"cc",28358.881,6.00,6,0.100,3118.000,0.200,66.000,0.300,1.000,0.500,0,1.000,0,5.000,0